When you browse on this site, cookies collect data to enhance your experience and personalize the content and advertising you see.
Visit our Privacy Policy to learn more. By continuing to use the site, you agree to this use of cookies and data.
  • In Lithuania
  • List of Countries
  • For 7 days
  • Water Temperature
  • Satellite Maps
  • Weather Map
  • Weather Widgets
  • user-avatar
    Login

    Hourly Weather San Luis

    Today, 23 July, Tuesday

    Time Temperature Precipitation Wind Pressure Humidity
    00:00 +5°C° 0 mm 5 mps 703 mmHg 37%
    01:00 +5°C° 0 mm 4 mps 703 mmHg 38%
    02:00 +4°C° 0 mm 4 mps 703 mmHg 39%
    03:00 +4°C° 0 mm 4 mps 703 mmHg 41%
    04:00 +4°C° 0 mm 4 mps 704 mmHg 42%
    05:00 +4°C° 0 mm 4 mps 704 mmHg 44%
    06:00 +4°C° 0 mm 3 mps 704 mmHg 45%
    07:00 +4°C° 0 mm 3 mps 704 mmHg 45%
    08:00 +4°C° 0 mm 3 mps 704 mmHg 46%
    09:00 +7°C° 0 mm 2 mps 705 mmHg 40%
    10:00 +9°C° 0 mm 2 mps 705 mmHg 35%
    11:00 +12°C° 0 mm 2 mps 706 mmHg 29%
    12:00 +13°C° 0 mm 2 mps 706 mmHg 28%
    13:00 +13°C° 0 mm 2 mps 705 mmHg 26%
    14:00 +14°C° 0 mm 2 mps 705 mmHg 25%
    15:00 +13°C° 0 mm 3 mps 705 mmHg 26%
    16:00 +12°C° 0 mm 3 mps 704 mmHg 27%
    17:00 +12°C° 0 mm 4 mps 704 mmHg 27%
    18:00 +9°C° 0 mm 5 mps 704 mmHg 30%
    19:00 +8°C° 0 mm 5 mps 705 mmHg 33%
    20:00 +7°C° 0 mm 6 mps 705 mmHg 36%
    21:00 +6°C° 0 mm 5 mps 705 mmHg 38%
    22:00 +6°C° 0 mm 5 mps 705 mmHg 39%
    23:00 +5°C° 0 mm 4 mps 706 mmHg 40%

    Tomorrow, 24 July, Wednesday

    Time Temperature Precipitation Wind Pressure Humidity
    00:00 +5°C° 0 mm 3 mps 706 mmHg 42%
    01:00 +5°C° 0 mm 2 mps 706 mmHg 45%
    02:00 +5°C° 0 mm 1 mps 706 mmHg 47%
    03:00 +5°C° 0 mm 1 mps 706 mmHg 47%
    04:00 +5°C° 0 mm 1 mps 706 mmHg 48%
    05:00 +5°C° 0 mm 1 mps 706 mmHg 48%
    06:00 +4°C° 0 mm 2 mps 706 mmHg 47%
    07:00 +4°C° 0 mm 2 mps 706 mmHg 46%
    08:00 +5°C° 0 mm 2 mps 707 mmHg 45%
    09:00 +7°C° 0 mm 3 mps 707 mmHg 40%
    10:00 +9°C° 0 mm 3 mps 707 mmHg 35%
    11:00 +11°C° 0 mm 3 mps 708 mmHg 30%
    12:00 +12°C° 0 mm 3 mps 707 mmHg 29%
    13:00 +14°C° 0 mm 2 mps 707 mmHg 28%
    14:00 +14°C° 0 mm 2 mps 706 mmHg 27%
    15:00 +14°C° 0 mm 2 mps 706 mmHg 28%
    16:00 +14°C° 0 mm 2 mps 705 mmHg 30%
    17:00 +14°C° 0 mm 2 mps 705 mmHg 31%
    18:00 +12°C° 0 mm 2 mps 705 mmHg 34%
    19:00 +10°C° 0 mm 2 mps 705 mmHg 37%
    20:00 +8°C° 0 mm 2 mps 705 mmHg 41%
    21:00 +8°C° 0 mm 2 mps 705 mmHg 42%
    22:00 +7°C° 0 mm 2 mps 705 mmHg 42%
    23:00 +7°C° 0 mm 2 mps 705 mmHg 43%

    Day after tomorrow, 25 July, Thursday

    Time Temperature Precipitation Wind Pressure Humidity
    00:00 +7°C° 0 mm 2 mps 704 mmHg 44%
    01:00 +5°C° 0 mm 3 mps 704 mmHg 45%
    02:00 +5°C° 0 mm 3 mps 704 mmHg 45%
    03:00 +5°C° 0 mm 3 mps 704 mmHg 46%
    04:00 +5°C° 0 mm 3 mps 703 mmHg 46%
    05:00 +4°C° 0 mm 3 mps 703 mmHg 47%
    06:00 +5°C° 0 mm 3 mps 703 mmHg 47%
    07:00 +5°C° 0 mm 3 mps 703 mmHg 46%
    08:00 +5°C° 0 mm 3 mps 703 mmHg 46%
    09:00 +8°C° 0 mm 3 mps 703 mmHg 40%
    10:00 +10°C° 0 mm 4 mps 703 mmHg 35%
    11:00 +13°C° 0 mm 4 mps 704 mmHg 29%
    12:00 +13°C° 0 mm 4 mps 703 mmHg 28%
    13:00 +14°C° 0 mm 4 mps 702 mmHg 27%
    14:00 +15°C° 0 mm 4 mps 702 mmHg 26%
    15:00 +14°C° 0 mm 4 mps 701 mmHg 27%
    16:00 +14°C° 0 mm 3 mps 701 mmHg 28%
    17:00 +13°C° 0 mm 3 mps 701 mmHg 29%
    18:00 +12°C° 0 mm 3 mps 701 mmHg 32%
    19:00 +10°C° 0 mm 2 mps 701 mmHg 36%
    20:00 +8°C° 0 mm 2 mps 701 mmHg 39%
    21:00 +8°C° 0 mm 2 mps 701 mmHg 40%
    22:00 +7°C° 0 mm 2 mps 701 mmHg 42%
    23:00 +7°C° 0 mm 2 mps 701 mmHg 43%

    26 July, Friday

    Time Temperature Precipitation Wind Pressure Humidity
    00:00 +7°C° 0 mm 2 mps 701 mmHg 43%
    01:00 +6°C° 0 mm 2 mps 701 mmHg 44%
    02:00 +6°C° 0 mm 2 mps 701 mmHg 45%
    03:00 +6°C° 0 mm 2 mps 701 mmHg 46%
    04:00 +5°C° 0 mm 2 mps 701 mmHg 47%
    05:00 +5°C° 0 mm 2 mps 701 mmHg 49%
    06:00 +6°C° 0 mm 1 mps 701 mmHg 49%
    07:00 +6°C° 0 mm 1 mps 702 mmHg 48%
    08:00 +7°C° 0 mm 1 mps 703 mmHg 48%
    09:00 +9°C° 0 mm 1 mps 703 mmHg 42%
    10:00 +11°C° 0 mm 1 mps 704 mmHg 36%
    11:00 +14°C° 0 mm 1 mps 705 mmHg 29%
    12:00 +14°C° 0 mm 2 mps 705 mmHg 28%
    13:00 +15°C° 0 mm 2 mps 705 mmHg 27%
    14:00 +16°C° 0 mm 2 mps 705 mmHg 26%
    15:00 +14°C° 0 mm 3 mps 705 mmHg 27%
    16:00 +14°C° 0 mm 3 mps 705 mmHg 28%
    17:00 +13°C° 0 mm 3 mps 705 mmHg 30%
    18:00 +12°C° 0 mm 3 mps 705 mmHg 32%
    19:00 +11°C° 0 mm 3 mps 705 mmHg 35%
    20:00 +10°C° 0 mm 3 mps 705 mmHg 38%
    21:00 +9°C° 0 mm 3 mps 705 mmHg 39%
    22:00 +9°C° 0 mm 3 mps 705 mmHg 40%
    23:00 +9°C° 0 mm 3 mps 705 mmHg 41%

    27 July, Saturday

    Time Temperature Precipitation Wind Pressure Humidity
    00:00 +9°C° 0 mm 3 mps 705 mmHg 41%
    01:00 +9°C° 0 mm 3 mps 705 mmHg 41%
    02:00 +8°C° 0 mm 3 mps 705 mmHg 42%
    03:00 +8°C° 0 mm 3 mps 705 mmHg 42%
    04:00 +8°C° 0 mm 2 mps 704 mmHg 43%
    05:00 +7°C° 0 mm 2 mps 704 mmHg 44%
    06:00 +7°C° 0 mm 3 mps 704 mmHg 45%
    07:00 +7°C° 0 mm 3 mps 704 mmHg 46%
    08:00 +7°C° 0 mm 3 mps 704 mmHg 47%
    09:00 +8°C° 0 mm 4 mps 705 mmHg 43%
    10:00 +10°C° 0 mm 5 mps 705 mmHg 39%
    11:00 +13°C° 0 mm 6 mps 705 mmHg 35%
    12:00 +14°C° 0 mm 6 mps 704 mmHg 33%
    13:00 +15°C° 0 mm 6 mps 703 mmHg 32%
    14:00 +15°C° 0 mm 6 mps 703 mmHg 30%
    15:00 +15°C° 0 mm 6 mps 702 mmHg 31%
    16:00 +15°C° 0 mm 5 mps 702 mmHg 33%
    17:00 +14°C° 0 mm 5 mps 701 mmHg 34%
    18:00 +13°C° 0 mm 4 mps 701 mmHg 38%
    19:00 +11°C° 0 mm 4 mps 701 mmHg 41%
    20:00 +10°C° 0 mm 3 mps 701 mmHg 45%
    21:00 +10°C° 0 mm 3 mps 701 mmHg 49%
    22:00 +9°C° 0 mm 3 mps 701 mmHg 53%
    23:00 +9°C° 0 mm 3 mps 701 mmHg 57%

    28 July, Sunday

    Time Temperature Precipitation Wind Pressure Humidity
    00:00 +8°C° 0 mm 4 mps 700 mmHg 60%
    01:00 +7°C° 0 mm 4 mps 700 mmHg 64%
    02:00 +7°C° 0 mm 4 mps 700 mmHg 67%
    03:00 +7°C° 0 mm 4 mps 699 mmHg 69%
    04:00 +7°C° 0 mm 5 mps 699 mmHg 72%
    05:00 +6°C° 0 mm 5 mps 699 mmHg 75%
    06:00 +6°C° 0 mm 5 mps 699 mmHg 76%
    07:00 +7°C° 0 mm 5 mps 699 mmHg 77%
    08:00 +7°C° 0 mm 5 mps 700 mmHg 78%
    09:00 +9°C° 0 mm 5 mps 700 mmHg 70%
    10:00 +10°C° 0 mm 6 mps 700 mmHg 62%
    11:00 +13°C° 0 mm 6 mps 700 mmHg 55%
    12:00 +14°C° 0 mm 6 mps 700 mmHg 52%
    13:00 +14°C° 0 mm 5 mps 699 mmHg 50%
    14:00 +15°C° 0 mm 5 mps 699 mmHg 47%
    15:00 +15°C° 0 mm 5 mps 698 mmHg 49%
    16:00 +14°C° 0 mm 4 mps 698 mmHg 51%
    17:00 +14°C° 0 mm 4 mps 698 mmHg 53%
    18:00 +12°C° 0 mm 3 mps 698 mmHg 60%
    19:00 +11°C° 0 mm 3 mps 698 mmHg 66%
    20:00 +9°C° 0 mm 2 mps 698 mmHg 73%
    21:00 +9°C° 0 mm 2 mps 699 mmHg 74%
    22:00 +9°C° 0 mm 2 mps 699 mmHg 75%
    23:00 +9°C° 0 mm 2 mps 699 mmHg 76%
    Show more